EW4036 Weather Reports


Display with metric or nautical units.
time (UTC)temp
F
wind
direction
speed
MPH
gust
MPH
rain 1hr
in
rain 24hr
in
rain mn
in
humidity
%
barometer
mb
20260831041504 56 197 3.0 8.0 0.00 0.41 0.00 97 1003.9
20260831040015 56 192 5.0 7.0 0.00 0.41 0.00 97 1003.8
20260831034601 56 231 5.0 9.0 0.00 0.41 0.00 97 1003.8
20260831033006 56 213 7.0 10.0 0.00 0.41 0.00 97 1003.7
20260831031601 57 205 6.0 9.0 0.00 0.41 0.00 97 1003.7
20260831030004 57 223 6.0 9.0 0.00 0.41 0.00 98 1003.6
20260831024502 57 223 6.0 8.0 0.00 0.41 0.00 98 1003.5
20260831023005 57 208 5.0 11.0 0.00 0.41 0.00 98 1003.5
20260831021502 57 194 7.0 11.0 0.00 0.41 0.00 97 1003.5
20260831014502 57 205 6.0 10.0 0.00 0.43 0.00 97 1003.5
20260831013005 57 190 5.0 10.0 0.00 0.43 0.00 97 1003.4
20260831011602 57 182 6.0 9.0 0.00 0.43 0.00 97 1003.3
20260831010200 57 192 6.0 8.0 0.00 0.43 0.00 97 1003.4
20260831004601 57 194 6.0 9.0 0.00 0.43 0.00 98 1003.3
20260831003003 57 200 5.0 10.0 0.00 0.43 0.00 98 1003.4
20260831001503 57 204 5.0 7.0 0.00 0.43 0.00 98 1003.4
20260831000007 58 241 6.0 11.0 0.00 0.43 0.00 98 1003.2
20260830234503 58 214 8.0 14.0 0.00 0.43 0.00 98 1003.0
20260830233007 58 259 8.0 15.0 0.00 0.43 0.00 98 1003.1
20260830231508 58 211 5.0 11.0 0.00 0.43 0.00 99 1002.9
20260830230009 58 235 4.0 9.0 0.00 0.43 0.00 99 1002.9
20260830224510 58 222 3.0 7.0 0.00 0.43 0.00 98 1002.8
20260830223016 58 252 6.0 10.0 0.03 0.43 0.00 98 1002.7
20260830221512 58 257 7.0 12.0 0.04 0.43 0.00 98 1002.6
20260830220014 59 238 7.0 11.0 0.05 0.43 0.00 99 1002.5
20260830214512 59 268 6.0 11.0 0.05 0.43 0.43 98 1002.4
20260830213014 59 250 8.0 14.0 0.02 0.40 0.40 98 1002.2
20260830211518 60 254 3.0 6.0 0.01 0.39 0.39 99 1002.0
20260830210012 60 250 2.0 3.0 0.00 0.39 0.39 98 1001.9
20260830204610 60 321 0.0 0.0 0.01 0.39 0.39 98 1001.7
20260830203016 60 321 0.0 0.0 0.02 0.39 0.39 98 1001.6
20260830201512 60 321 0.0 0.0 0.06 0.39 0.39 98 1001.5
20260830200015 60 360 0.0 0.0 0.07 0.39 0.39 98 1001.4
20260830194511 60 360 0.0 0.0 0.08 0.38 0.38 98 1001.3
20260830193015 60 360 0.0 0.0 0.10 0.35 0.35 98 1001.3
20260830191509 60 63 0.0 0.0 0.12 0.32 0.32 98 1001.3
20260830190017 60 63 0.0 0.0 0.14 0.31 0.31 98 1001.2
20260830184514 60 63 0.0 0.0 0.15 0.31 0.30 98 1001.0
20260830183124 60 63 0.0 0.0 0.12 0.27 0.26 98 1001.1
20260830181512 60 85 0.0 0.0 0.06 0.21 0.20 98 1001.0
20260830180009 61 86 0.0 0.0 0.02 0.17 0.17 98 1001.0
20260830174523 61 100 0.0 3.0 0.01 0.20 0.15 98 1000.9
20260830173009 61 63 0.0 3.0 0.02 0.20 0.14 97 1000.9
20260830171610 61 71 0.0 0.0 0.04 0.20 0.14 97 1000.9
20260830170009 61 93 1.0 3.0 0.07 0.20 0.14 97 1001.0
20260830164610 61 105 1.0 3.0 0.09 0.24 0.14 97 1000.9
20260830163013 61 86 1.0 5.0 0.08 0.23 0.13 97 1000.9
20260830161635 61 91 0.0 2.0 0.06 0.20 0.10 96 1000.9
20260830160015 61 83 0.0 5.0 0.02 0.17 0.07 96 1000.9
20260830154512 61 46 1.0 5.0 0.01 0.20 0.05 96 1001.1
20260830153009 61 128 2.0 7.0 0.02 0.20 0.05 96 1001.1
20260830151518 61 123 2.0 7.0 0.02 0.20 0.05 95 1001.2
20260830150014 61 72 3.0 6.0 0.02 0.20 0.05 95 1001.3
20260830144513 62 70 2.0 6.0 0.02 0.36 0.04 94 1001.4
20260830143015 62 144 2.0 6.0 0.01 0.35 0.03 93 1001.6
20260830141512 62 144 4.0 7.0 0.00 0.35 0.02 90 1001.6
20260830140010 63 156 2.0 6.0 0.00 0.35 0.02 89 1001.7
20260830134524 63 144 5.0 8.0 0.00 0.35 0.02 87 1001.7
20260830133012 63 148 5.0 11.0 0.00 0.35 0.02 86 1001.7
20260830131509 64 171 4.0 9.0 0.00 0.35 0.02 87 1001.7
20260830130014 63 144 5.0 11.0 0.00 0.35 0.02 87 1001.8
20260830124608 63 159 5.0 12.0 0.00 0.35 0.02 86 1001.8
20260830123008 64 148 5.0 9.0 0.00 0.35 0.02 86 1001.8
20260830121510 64 143 4.0 8.0 0.00 0.35 0.02 86 1001.8
20260830120012 64 171 6.0 11.0 0.00 0.35 0.02 87 1001.9
20260830114509 63 139 5.0 10.0 0.00 0.35 0.02 88 1002.0
20260830113012 64 163 6.0 10.0 0.00 0.35 0.02 88 1002.1
20260830111511 64 148 6.0 11.0 0.00 0.35 0.02 89 1002.1
20260830110014 63 152 5.0 11.0 0.00 0.35 0.02 90 1002.2
20260830104511 63 178 7.0 12.0 0.00 0.35 0.02 89 1002.4
20260830103108 63 159 8.0 12.0 0.00 0.35 0.02 89 1002.3
20260830101511 63 180 8.0 14.0 0.00 0.35 0.02 90 1002.3
20260830100011 63 184 9.0 15.0 0.00 0.35 0.02 90 1002.3
20260830094514 63 167 6.0 11.0 0.00 0.35 0.02 91 1002.4
20260830091512 62 164 5.0 12.0 0.00 0.35 0.02 93 1002.5
20260830090018 62 185 4.0 11.0 0.00 0.35 0.02 94 1002.5
20260830084609 62 172 6.0 11.0 0.00 0.35 0.02 94 1002.7
20260830083013 62 165 4.0 10.0 0.00 0.35 0.02 94 1002.7
20260830081610 61 126 4.0 12.0 0.00 0.35 0.02 95 1002.8
20260830080009 61 142 6.0 13.0 0.00 0.35 0.02 95 1002.8
20260830074519 61 150 4.0 11.0 0.00 0.35 0.02 96 1002.8
20260830073012 60 164 6.0 9.0 0.00 0.35 0.02 96 1002.7
20260830071512 59 165 5.0 10.0 0.00 0.35 0.02 97 1002.7
20260830070011 59 176 4.0 9.0 0.00 0.35 0.02 97 1002.8
20260830064508 59 144 5.0 10.0 0.00 0.35 0.02 97 1002.8
20260830063013 59 164 4.0 8.0 0.00 0.35 0.02 98 1002.6
20260830061609 59 132 4.0 9.0 0.00 0.35 0.02 98 1002.6
20260830060009 58 131 3.0 6.0 0.00 0.35 0.02 98 1002.7
20260830054520 58 131 2.0 7.0 0.00 0.35 0.02 98 1002.8
20260830053012 57 161 2.0 6.0 0.00 0.35 0.02 98 1002.8
20260830051525 57 159 2.0 7.0 0.00 0.35 0.02 98 1002.7
20260830050013 57 161 3.0 6.0 0.00 0.35 0.02 98 1002.8
20260830044608 57 120 2.0 8.0 0.00 0.35 0.02 98 1002.7